{"data":{"norad_id":37742,"epoch":"2026-05-25T02:11:52.322784Z","epoch_age_seconds":63150,"freshness":"FRESH","line1":"1 37742U 11033D   26145.09157781 -.00000099  00000+0  27399-4 0  9999","line2":"2 37742  52.0131 263.4989 0000498 142.8239  28.6123 12.62263351686876","mean_motion":12.62263351,"eccentricity":4.98e-5,"inclination_deg":52.0131,"raan_deg":263.4989,"arg_perigee_deg":142.8239,"mean_anomaly_deg":28.6123,"bstar":2.7399e-5,"rev_number":68687,"period_min":114.080789786,"perigee_km":1413.2282545745,"apogee_km":1414.0043132016,"semimajor_km":7791.7532838881,"source":"CELESTRAK","updated_at":"2026-05-25T13:38:23.043006Z"}}